GW3673 Weather Reports


time (UTC)temp
C
wind
direction
speed
KPH
gust
KPH
rain 1hr
cm
rain 24hr
cm
rain mn
cm
humidity
%
barometer
mb
20260507171618 14 297 0.0 1.6 0.00 0.00 0.00 67 1014.3
20260507170538 14 49 0.0 1.6 0.00 0.00 0.00 67 1014.4
20260507165518 14 0.0 0.0 0.00 0.00 0.00 68 1014.4
20260507164518 14 249 0.0 1.6 0.00 0.00 0.00 68 1014.4
20260507163518 14 283 0.0 3.2 0.00 0.00 0.00 69 1014.4
20260507162519 14 306 0.0 3.2 0.00 0.00 0.00 69 1014.4
20260507161601 13 261 0.0 3.2 0.00 0.00 0.00 69 1014.4
20260507160536 13 344 0.0 0.0 0.00 0.00 0.00 69 1014.5
20260507155520 13 265 0.0 1.6 0.00 0.00 0.00 69 1014.5
20260507154522 14 321 0.0 4.8 0.00 0.00 0.00 71 1014.5
20260507153520 14 191 0.0 3.2 0.00 0.00 0.00 70 1014.5
20260507152517 14 70 0.0 8.0 0.00 0.00 0.00 69 1014.6
20260507151517 14 196 1.6 4.8 0.00 0.00 0.00 68 1014.6
20260507150537 14 146 3.2 8.0 0.00 0.00 0.00 66 1014.5
20260507145557 14 204 1.6 6.4 0.00 0.00 0.00 64 1014.6
20260507144520 15 209 1.6 4.8 0.00 0.00 0.00 63 1014.6
20260507143540 15 193 1.6 6.4 0.00 0.00 0.00 62 1014.6
20260507142520 15 175 1.6 4.8 0.00 0.00 0.00 60 1014.7
20260507141521 14 159 0.0 3.2 0.00 0.00 0.00 63 1014.8
20260507140521 15 139 1.6 6.4 0.00 0.00 0.00 64 1014.8
20260507135518 15 166 1.6 8.0 0.00 0.00 0.00 63 1014.8
20260507134538 14 155 1.6 6.4 0.00 0.00 0.00 65 1014.8
20260507133539 14 171 3.2 6.4 0.00 0.00 0.00 64 1014.8
20260507132519 14 157 0.0 4.8 0.00 0.00 0.00 66 1014.8
20260507131519 14 192 1.6 6.4 0.00 0.00 0.00 64 1014.9
20260507130619 14 157 1.6 6.4 0.00 0.00 0.00 64 1014.9
20260507125522 14 149 3.2 6.4 0.00 0.00 0.00 64 1014.9
20260507124519 14 159 3.2 9.7 0.00 0.00 0.00 65 1015.0
20260507123519 14 149 3.2 11.3 0.00 0.00 0.00 64 1015.0
20260507122517 15 170 3.2 9.7 0.00 0.00 0.00 63 1015.0
20260507121517 15 172 1.6 8.0 0.00 0.00 0.00 64 1015.0
20260507120537 15 153 1.6 9.7 0.00 0.00 0.00 65 1015.0
20260507115520 15 162 1.6 9.7 0.00 0.00 0.00 65 1015.0
20260507114520 15 124 1.6 9.7 0.00 0.00 0.00 64 1015.1
20260507113525 -17 145 1.6 6.4 0.00 0.00 0.00
20260507112518 15 162 1.6 8.0 0.00 0.00 0.00 67 1015.2
20260507111518 15 164 1.6 4.8 0.00 0.00 0.00 67 1015.2
20260507110518 14 137 1.6 4.8 0.00 0.00 0.00 68 1015.3
20260507105521 15 107 1.6 4.8 0.00 0.00 0.00 67 1015.3
20260507104519 15 115 1.6 6.4 0.00 0.00 0.00 66 1015.4
20260507103524 15 128 1.6 6.4 0.00 0.00 0.00 67 1015.5
20260507102545 14 125 1.6 8.0 0.00 0.00 0.00 67 1015.5
20260507101525 14 124 1.6 8.0 0.00 0.00 0.00 68 1015.6
20260507100539 13 97 1.6 4.8 0.00 0.00 0.00 68 1015.6
20260507095519 13 130 1.6 4.8 0.00 0.00 0.00 70 1015.5
20260507094522 13 98 1.6 4.8 0.00 0.00 0.00 68 1015.5
20260507093539 13 156 1.6 6.4 0.00 0.00 0.00 69 1015.4
20260507092520 13 156 1.6 8.0 0.00 0.00 0.00 69 1015.4
20260507091523 13 155 1.6 6.4 0.00 0.00 0.00 68 1015.4
20260507090523 13 104 1.6 4.8 0.00 0.00 0.00 68 1015.5
20260507084520 12 103 1.6 8.0 0.00 0.00 0.00 71 1015.5
20260507083518 12 117 1.6 8.0 0.00 0.00 0.00 71 1015.5
20260507082520 12 110 1.6 6.4 0.00 0.00 0.00 73 1015.5
20260507081521 -17 91 1.6 6.4 0.00 0.00 0.00
20260507080528 11 105 1.6 6.4 0.00 0.00 0.00 77 1015.5
20260507075538 10 96 1.6 8.0 0.00 0.00 0.00 78 1015.5
20260507074521 10 110 3.2 8.0 0.00 0.00 0.00 79 1015.4
20260507073519 10 80 1.6 6.4 0.00 0.00 0.00 80 1015.4
20260507072519 9 85 1.6 4.8 0.00 0.00 0.00 81 1015.5
20260507071519 9 110 1.6 8.0 0.00 0.00 0.00 82 1015.4
20260507070539 9 123 1.6 6.4 0.00 0.00 0.00 82 1015.4
20260507065519 8 126 1.6 4.8 0.00 0.00 0.00 82 1015.4
20260507064520 8 102 0.0 3.2 0.00 0.00 0.00 82 1015.4
20260507063519 8 97 0.0 4.8 0.00 0.00 0.00 82 1015.4
20260507062525 8 122 0.0 4.8 0.00 0.00 0.00 82 1015.3
20260507061523 8 125 0.0 3.2 0.00 0.00 0.00 82 1015.3
20260507060526 8 95 0.0 1.6 0.00 0.00 0.00 82 1015.2
20260507055517 8 123 0.0 3.2 0.00 0.00 0.00 82 1015.1
20260507054526 8 135 0.0 3.2 0.00 0.00 0.00 82 1015.1
20260507053523 8 135 0.0 4.8 0.00 0.00 0.00 81 1015.1
20260507052520 8 140 1.6 4.8 0.00 0.00 0.00 81 1015.0
20260507051520 8 70 0.0 3.2 0.00 0.00 0.00 80 1014.9
20260507050521 8 130 0.0 4.8 0.00 0.00 0.00 80 1015.0
20260507045541 8 127 0.0 4.8 0.00 0.00 0.00 80 1015.0
20260507044518 8 124 0.0 4.8 0.00 0.00 0.00 80 1014.9
20260507043538 8 132 1.6 4.8 0.00 0.00 0.00 80 1014.9
20260507042519 8 113 0.0 3.2 0.00 0.00 0.00 79 1014.9
20260507041522 8 138 0.0 3.2 0.00 0.00 0.00 79 1014.9
20260507040518 8 128 0.0 1.6 0.00 0.00 0.00 78 1014.9
20260507035519 8 100 0.0 3.2 0.00 0.00 0.00 78 1014.9
20260507034519 8 121 1.6 8.0 0.00 0.00 0.00 78 1014.8
20260507033520 8 118 1.6 6.4 0.00 0.00 0.00 78 1014.8
20260507032519 8 112 1.6 6.4 0.00 0.00 0.00 78 1014.9
20260507031519 9 121 1.6 8.0 0.00 0.00 0.00 78 1014.9
20260507030520 9 134 1.6 6.4 0.00 0.00 0.00 78 1014.9
20260507025520 9 109 0.0 4.8 0.00 0.00 0.00 78 1014.9
20260507024521 9 106 1.6 4.8 0.00 0.00 0.00 77 1014.9
20260507023520 9 95 1.6 6.4 0.00 0.00 0.00 77 1014.9
20260507022518 9 114 1.6 4.8 0.00 0.00 0.00 76 1014.9
20260507021518 9 118 1.6 6.4 0.00 0.00 0.00 76 1014.9
20260507020618 10 118 1.6 6.4 0.00 0.00 0.00 76 1014.9
20260507015521 10 112 1.6 6.4 0.00 0.00 0.00 75 1014.9
20260507014522 10 107 1.6 6.4 0.00 0.00 0.00 75 1014.9
20260507013519 10 120 1.6 6.4 0.00 0.00 0.00 74 1014.9
20260507012519 10 109 1.6 9.7 0.00 0.00 0.00 74 1014.9
20260507010519 10 108 1.6 6.4 0.00 0.00 0.00 72 1015.0
20260507005539 10 123 1.6 4.8 0.00 0.00 0.00 71 1014.9
20260507004522 10 102 1.6 8.0 0.00 0.00 0.00 70 1014.8
20260507003637 11 100 1.6 8.0 0.00 0.00 0.00 69 1014.8
20260507002517 11 108 1.6 8.0 0.00 0.00 0.00 69 1014.9
20260507001517 11 115 1.6 8.0 0.00 0.00 0.00 68 1014.8
20260507000517 11 99 1.6 9.7 0.00 0.00 0.00 67 1014.8
20260506235520 11 102 1.6 8.0 0.00 0.00 0.00 67 1014.9
20260506234521 11 105 1.6 6.4 0.00 0.00 0.00 66 1014.9
20260506233520 11 110 1.6 3.2 0.00 0.00 0.00 64 1014.8
20260506232517 11 101 0.0 4.8 0.00 0.00 0.00 61 1014.8
20260506231538 11 106 1.6 6.4 0.00 0.00 0.00 60 1014.8
20260506230518 11 121 0.0 4.8 0.00 0.00 0.00 61 1014.8
20260506225518 12 119 0.0 4.8 0.00 0.00 0.00 60 1014.8
20260506224518 12 94 0.0 3.2 0.00 0.00 0.00 59 1014.7
20260506223518 12 92 0.0 4.8 0.00 0.00 0.00 60 1014.6
20260506222538 12 83 0.0 4.8 0.00 0.00 0.00 59 1014.6
20260506221518 12 120 0.0 1.6 0.00 0.00 0.00 58 1014.5
20260506220539 12 117 0.0 4.8 0.00 0.00 0.00 58 1014.5
20260506215559 12 119 0.0 3.2 0.00 0.00 0.00 56 1014.4
20260506214519 12 118 0.0 4.8 0.00 0.00 0.00 55 1014.5
20260506213520 12 126 0.0 3.2 0.00 0.00 0.00 55 1014.5
20260506212519 12 121 0.0 4.8 0.00 0.00 0.00 55 1014.4
20260506211519 12 121 0.0 4.8 0.00 0.00 0.00 56 1014.4
20260506210520 12 125 0.0 3.2 0.00 0.00 0.00 54 1014.3
20260506205520 12 62 0.0 4.8 0.00 0.00 0.00 55 1014.3
20260506204540 12 84 0.0 3.2 0.00 0.00 0.00 54 1014.3
20260506203518 12 113 0.0 3.2 0.00 0.00 0.00 54 1014.2
20260506202523 12 119 0.0 3.2 0.00 0.00 0.00 54 1014.2
20260506201520 12 123 0.0 6.4 0.00 0.00 0.00 54 1014.1
20260506200518 12 123 0.0 4.8 0.00 0.00 0.00 55 1014.0
20260506195518 12 133 0.0 3.2 0.00 0.00 0.00 55 1013.9
20260506194518 12 64 0.0 3.2 0.00 0.00 0.00 56 1013.9
20260506193519 13 118 0.0 1.6 0.00 0.00 0.00 53 1013.8
20260506192518 13 94 0.0 4.8 0.00 0.00 0.00 53 1013.9
20260506191519 13 116 0.0 3.2 0.00 0.00 0.00 52 1013.9
20260506190519 13 138 0.0 1.6 0.00 0.00 0.00 53 1013.9
20260506184519 13 0.0 0.0 0.00 0.00 0.00 53 1013.8
20260506183639 13 180 0.0 1.6 0.00 0.00 0.00 52 1013.7
20260506182520 13 133 0.0 3.2 0.00 0.00 0.00 52 1013.7
20260506181540 13 126 0.0 1.6 0.00 0.00 0.00 53 1013.7
20260506180621 13 115 0.0 3.2 0.00 0.00 0.00 53 1013.6
20260506175517 13 103 0.0 4.8 0.00 0.00 0.00 52 1013.5
20260506174517 13 67 0.0 3.2 0.00 0.00 0.00 52 1013.6
20260506173523 13 141 0.0 4.8 0.00 0.00 0.00 52 1013.5